Burlington, WA
on Friday, November 9, 2012

Friday
Previous Day Next Day
Daily Summary
 ActualAverage (KBLI)Record (KBLI)
Temperature
Mean Temperature °F 45°F  
Max Temperature 46°F 51°F 64°F (1976)
Min Temperature 32°F 38°F 26°F (1979)
Degree Days
Heating Degree Days 26 20  
Month to date heating degree days 175  
Cooling Degree Days 0 0  
Month to date cooling degree days 0  
Year to date cooling degree days 42  
Moisture
Dew Point 32°F   
Average Humidity 83    
Maximum Humidity 100    
Minimum Humidity 57    
Precipitation
Precipitation 0.00 in 0.20 in 2.87 in (1990)
Month to date precipitation 1.73  
Year to date precipitation 27.54  
Wind
Wind Speed 2 mph   
Max Wind Speed 8 mph   
Max Gust Speed mph   
Visibility 9 miles   
Events     

Key: T is trace of precipitation, MM is missing value
Source: NWS Daily Summary
Time(PST)TemperatureDew PointHumidity Pressure Visibility Wind DirectionWind SpeedGust SpeedPrecipitationEvents Conditions
12:15 AM 35.6°F 32.0°F 87% 29.85 in 6.0 miles Calm Calm - 0.00 in   Clear
12:35 AM 33.8°F 33.8°F 100% 29.85 in 10.0 miles Calm Calm - 0.00 in   Clear
12:55 AM 33.8°F 32.0°F 93% 29.85 in 7.0 miles Calm Calm - 0.00 in   Clear
1:15 AM 33.8°F 32.0°F 93% 29.85 in 10.0 miles Calm Calm - 0.00 in   Clear
1:35 AM 33.8°F 32.0°F 93% 29.86 in 10.0 miles Calm Calm - 0.00 in   Clear
1:55 AM 33.8°F 32.0°F 93% 29.86 in 9.0 miles Calm Calm - 0.00 in   Clear
2:15 AM 32.0°F 32.0°F 100% 29.86 in 10.0 miles Calm Calm - 0.00 in   Clear
2:35 AM 32.0°F 32.0°F 100% 29.86 in 10.0 miles North 3.5 mph - 0.00 in   Clear
2:55 AM 32.0°F 32.0°F 100% 29.87 in 10.0 miles Calm Calm - 0.00 in   Clear
3:15 AM 32.0°F 32.0°F 100% 29.86 in 10.0 miles North 4.6 mph - 0.00 in   Clear
3:55 AM 33.8°F 33.8°F 100% 29.86 in 10.0 miles Calm Calm - 0.00 in   Clear
4:15 AM 33.8°F 33.8°F 100% 29.87 in 10.0 miles North 3.5 mph - 0.00 in   Clear
4:35 AM 33.8°F 33.8°F 100% 29.87 in 10.0 miles Calm Calm - 0.00 in   Clear
5:15 AM 32.0°F 32.0°F 100% 29.88 in 10.0 miles Calm Calm - 0.00 in   Clear
5:35 AM 32.0°F 32.0°F 100% 29.88 in 10.0 miles NE 3.5 mph - 0.00 in   Clear
6:15 AM 32.0°F 32.0°F 100% 29.89 in 10.0 miles Calm Calm - 0.00 in   Clear
6:35 AM 32.0°F 32.0°F 100% 29.89 in 8.0 miles ENE 5.8 mph - 0.00 in   Clear
6:55 AM 32.0°F 32.0°F 100% 29.89 in 7.0 miles Calm Calm - 0.00 in   Clear
7:15 AM 32.0°F 32.0°F 100% 29.89 in 10.0 miles North 4.6 mph - 0.00 in   Clear
7:35 AM 32.0°F 32.0°F 100% 29.90 in 10.0 miles NW 4.6 mph - 0.00 in   Clear
7:55 AM 32.0°F 32.0°F 100% 29.90 in 9.0 miles ENE 4.6 mph - 0.00 in   Clear
8:15 AM 33.8°F 32.0°F 93% 29.91 in 7.0 miles NE 6.9 mph - 0.00 in   Clear
8:35 AM 33.8°F 33.8°F 100% 29.90 in 8.0 miles NE 6.9 mph - 0.00 in   Clear
8:55 AM 33.8°F 33.8°F 100% 29.91 in 7.0 miles ENE 4.6 mph - 0.00 in   Clear
9:15 AM 35.6°F 33.8°F 93% 29.91 in 6.0 miles ENE 5.8 mph - 0.00 in   Clear
9:35 AM 35.6°F 33.8°F 93% 29.91 in 8.0 miles ENE 3.5 mph - 0.00 in   Clear
9:55 AM 37.4°F 35.6°F 93% 29.91 in 9.0 miles East 3.5 mph - 0.00 in   Clear
10:15 AM 37.4°F 35.6°F 93% 29.92 in 7.0 miles Calm Calm - 0.00 in   Clear
10:35 AM 39.2°F 35.6°F 87% 29.92 in 9.0 miles Calm Calm - 0.00 in   Clear
10:55 AM 41.0°F 35.6°F 81% 29.92 in 8.0 miles Calm Calm - 0.00 in   Clear
11:15 AM 42.8°F 33.8°F 70% 29.92 in 9.0 miles NE 3.5 mph - 0.00 in   Clear
11:35 AM 42.8°F 33.8°F 70% 29.92 in 9.0 miles Calm Calm - 0.00 in   Clear
11:55 AM 42.8°F 32.0°F 66% 29.91 in 7.0 miles ENE 3.5 mph - 0.00 in   Clear
12:15 PM 44.6°F 32.0°F 61% 29.91 in 8.0 miles ENE 3.5 mph - 0.00 in   Clear
12:35 PM 44.6°F 32.0°F 61% 29.91 in 9.0 miles SSE 3.5 mph - 0.00 in   Clear
12:55 PM 44.6°F 33.8°F 66% 29.90 in 8.0 miles Calm Calm - 0.00 in   Clear
1:15 PM 44.6°F 33.8°F 66% 29.91 in 9.0 miles West 3.5 mph - 0.00 in   Clear
1:35 PM 46.4°F 32.0°F 57% 29.90 in 10.0 miles WNW 4.6 mph - 0.00 in   Clear
1:55 PM 46.4°F 32.0°F 57% 29.90 in 10.0 miles NW 5.8 mph - 0.00 in   Clear
2:15 PM 46.4°F 32.0°F 57% 29.90 in 9.0 miles NW 3.5 mph - 0.00 in   Clear
2:35 PM 46.4°F 32.0°F 57% 29.90 in 10.0 miles West 3.5 mph - 0.00 in   Clear
2:55 PM 46.4°F 32.0°F 57% 29.90 in 10.0 miles NW 3.5 mph - 0.00 in   Clear
3:15 PM 44.6°F 32.0°F 61% 29.90 in 10.0 miles WNW 4.6 mph - 0.00 in   Clear
3:35 PM 44.6°F 30.2°F 57% 29.90 in 9.0 miles WNW 3.5 mph - 0.00 in   Clear
3:55 PM 44.6°F 30.2°F 57% 29.90 in 10.0 miles WNW 3.5 mph - 0.00 in   Clear
4:35 PM 42.8°F 32.0°F 66% 29.90 in 9.0 miles NW 3.5 mph - 0.00 in   Clear
5:15 PM 37.4°F 32.0°F 81% 29.90 in 10.0 miles NW 4.6 mph - 0.00 in   Clear
5:35 PM 35.6°F 30.2°F 81% 29.91 in 10.0 miles NW 4.6 mph - 0.00 in   Clear
5:55 PM 33.8°F 32.0°F 93% 29.91 in 10.0 miles Calm Calm - 0.00 in   Clear
6:15 PM 37.4°F 32.0°F 81% 29.92 in 10.0 miles NE 4.6 mph - 0.00 in   Clear
6:35 PM 37.4°F 30.2°F 75% 29.92 in 10.0 miles ENE 5.8 mph - 0.00 in   Clear
6:55 PM 37.4°F 30.2°F 75% 29.92 in 10.0 miles NE 5.8 mph - 0.00 in   Clear
7:15 PM 37.4°F 30.2°F 75% 29.92 in 10.0 miles NE 6.9 mph - 0.00 in   Clear
7:35 PM 37.4°F 28.4°F 70% 29.93 in 10.0 miles NE 5.8 mph - 0.00 in   Clear
7:55 PM 37.4°F 28.4°F 70% 29.93 in 10.0 miles NE 5.8 mph - 0.00 in   Clear
8:15 PM 37.4°F 28.4°F 70% 29.93 in 10.0 miles ENE 8.1 mph - 0.00 in   Clear
Moon Phase
Nov. 09 Nov. 13 Nov. 20 Nov. 28 Dec. 06
Sunrise:07:09 AM (PST) Moon Rise:01:52 AM (PST)11/9
Sunset:04:37 PM (PST) Moon Set:02:12 PM (PST)11/9

Copyright © 2014 The Weather Underground, Inc.